Regional Weather Roundup
Issued by NWS

Home | Current Version | Previous Version | Text Only | Print | Product List | Glossary Off
Versions: 1 2 3 4 5 6 7 8 9 10 11 12 13 14 15 16 17 18 19 20 21 22 23 24 25 26 27 28 29 30 31 32 33 34 35 36 37 38 39 40 41 42 43 44 45 46 47 48 49 50

623
ASUS45 KCYS 241810
RWRWY

WYOMING REGIONAL WEATHER ROUNDUP
NATIONAL WEATHER SERVICE CHEYENNE WY
1200 PM MDT TUE MAY 24 2016

NOTE:  "FAIR" INDICATES FEW OR NO CLOUDS BELOW 12,000 FEET
WITH NO SIGNIFICANT WEATHER AND/OR OBSTRUCTIONS TO VISIBILITY.

WYZ001-241900-
YELLOWSTONE NATIONAL PARK

CITY           SKY/WX    TMP DP  RH WIND       PRES   REMARKS
LK YELLOWSTONE   N/A     47  28  47 MISG      29.96S
6HR MIN TEMP:  28; 6HR MAX TEMP:  47;

W YELLOWSTONE  NOT AVBL

$$
WYZ002>013-054>058-071-098>099-241900-
NORTHERN WYOMING

CITY           SKY/WX    TMP DP  RH WIND       PRES   REMARKS
JACKSON        MOSUNNY   50  30  46 CALM      29.92F
CODY           FAIR      55  39  54 N3        29.88F
GREYBULL       FAIR      64  30  27 MISG      29.85F
6HR MIN TEMP:  38; 6HR MAX TEMP:  65;

WORLAND        FAIR      63  36  36 VRB5      29.85F
6HR MIN TEMP:  35; 6HR MAX TEMP:  63;

SHERIDAN       FAIR      63  40  42 SE6       29.88F
6HR MIN TEMP:  35; 6HR MAX TEMP:  64;

BUFFALO          N/A     62  38  40 E14G21    29.91F
GILLETTE       FAIR      65  36  34 S6        29.90F
6HR MIN TEMP:  32; 6HR MAX TEMP:  65;

HULETT         FAIR      64  37  36 CALM      29.91F
NEWCASTLE      FAIR      64  30  27 S8        29.93S

$$
WYZ014>020-022>026-101>103-241900-
CENTRAL WYOMING

CITY           SKY/WX    TMP DP  RH WIND       PRES   REMARKS
BIG PINEY      PTSUNNY   53  30  41 S5        29.94F
6HR MIN TEMP:  28; 6HR MAX TEMP:  53;

PINEDALE       MOCLDY    50  32  50 S6        29.97S
DUBOIS         MOCLDY    54  25  32 E7        29.91F
LANDER         PTSUNNY   59  33  37 VRB3      29.86F
6HR MIN TEMP:  38; 6HR MAX TEMP:  60;

RIVERTON       FAIR      61  31  32 VRB3      29.88F
6HR MIN TEMP:  38; 6HR MAX TEMP:  63;

CASPER         FAIR      61  33  35 NE5       29.90F
6HR MIN TEMP:  33; 6HR MAX TEMP:  61;

DOUGLAS        FAIR      67  39  35 SE16G24   29.91F
6HR MIN TEMP:  35; 6HR MAX TEMP:  67;


$$
WYZ021-027>030-104>119-241900-
SOUTHERN WYOMING

CITY           SKY/WX    TMP DP  RH WIND       PRES   REMARKS
EVANSTON       FAIR      53  35  50 E13       29.91F
6HR MIN TEMP:  39; 6HR MAX TEMP:  54; 6HR PCP: TRACE;

KEMMERER         N/A     54  30  40 E9G16     29.93F
FORT BRIDGER   RAIN      45  39  81 SW29G38   29.98R
ROCK SPRINGS   FAIR      60  29  30 E9        29.90F
6HR MIN TEMP:  40; 6HR MAX TEMP:  60;

DIXON          FAIR      67  25  21 SW17G25   29.95S
RAWLINS        FAIR      60  30  32 E7        29.93F
6HR MIN TEMP:  33; 6HR MAX TEMP:  61;

SARATOGA       MOCLDY    63  32  31 NW6       29.93S
LARAMIE        FAIR      59  40  49 SE31G40   29.94F
6HR MIN TEMP:  30; 6HR MAX TEMP:  61;

CHEYENNE       FAIR      62  44  51 S22G30    29.98S
6HR MIN TEMP:  40; 6HR MAX TEMP:  62;

TORRINGTON     FAIR      70  46  42 SE13G21   29.90F
6HR MIN TEMP:  40; 6HR MAX TEMP:  70;

PINE BLUFFS    FAIR      68  43  40 S21G26    29.96F

$$




USA.gov is the U.S. government's official web portal to all federal, state and local government web resources and services.